Wind_Speed
5 5 5 5 5 5 4 3 4 3 3 3 3 3 3 3 3 3 2 2 1 1 1 1 1 1 1 2 2 3 3 3 3 4 4 4 5 5 6 6 7 7 7
4 4 5 5 5 4 4 3 4 3 3 3 3 3 3 3 2 2 2 2 2 2 2 2 2 2 3 3 4 4 4 5 5 5 6 6 6 6 7 7 8 8 8
3 3 4 4 4 5 4 4 4 3 3 3 3 4 4 3 3 3 3 3 3 3 3 3 4 4 5 5 5 5 6 6 6 6 7 7 8 8 9 9 9 9 9
3 3 4 4 4 4 4 4 4 4 5 4 4 4 4 4 4 4 4 4 4 4 4 5 5 6 6 6 6 6 6 7 7 7 7 7 8 8 9 10 11 11 11
3 3 3 3 4 4 4 5 5 6 6 5 5 5 5 5 5 5 5 5 6 6 5 6 6 6 7 6 6 7 8 8 8 8 8 8 9 9 9 10 11 12 12
3 3 3 4 4 4 4 5 5 6 6 6 5 5 5 5 6 6 6 7 7 7 7 7 7 8 8 9 9 9 9 9 10 10 10 10 10 11 11 11 12 13 13
3 3 4 4 4 4 5 5 6 6 6 6 6 6 6 6 7 7 8 8 9 9 9 9 9 9 10 10 10 10 10 11 11 11 11 11 11 12 13 13 14 14 15
1 2 3 3 4 4 5 5 7 7 7 7 7 7 7 8 9 9 10 10 10 10 11 11 12 12 12 11 12 12 12 12 12 12 12 12 13 13 13 14 15 16 16
1 2 2 3 3 4 5 5 6 7 7 8 8 9 9 9 9 10 11 11 11 12 12 12 12 13 13 13 14 14 14 14 14 14 14 14 15 15 15 15 15 16 16
1 2 3 3 4 5 5 6 6 7 8 8 8 8 9 10 10 11 11 11 12 12 13 13 14 14 15 15 16 16 16 16 16 16 16 16 16 17 16 16 17 18 19
2 3 4 4 5 6 6 7 7 7 8 8 9 9 9 10 11 11 11 12 12 13 14 14 15 15 16 16 17 17 18 18 18 17 17 17 17 18 18 18 19 19 20
3 4 5 5 6 6 7 8 8 8 9 9 10 10 11 11 11 11 11 12 13 14 14 15 15 16 17 17 17 17 17 18 18 18 18 18 18 18 19 19 20 21 21
4 4 5 5 6 7 7 8 9 10 10 11 11 11 11 11 12 12 12 13 14 14 15 15 16 17 17 17 18 17 17 18 18 18 19 19 19 20 20 20 21 22 23
5 5 5 6 7 7 8 9 9 10 11 12 12 12 12 12 13 13 13 14 14 14 15 16 17 17 17 17 17 18 18 18 18 19 19 20 21 21 21 22 22 23 24
6 7 7 8 8 8 9 10 11 11 12 13 13 13 13 14 14 14 14 14 15 15 15 16 17 18 18 18 18 18 19 19 20 21 21 22 22 22 23 23 24 24 24
7 7 8 8 9 10 11 11 12 12 13 14 15 15 15 15 15 16 16 16 16 17 17 18 18 19 19 19 19 20 20 20 21 21 22 23 24 24 25 25 24 24 24
8 9 9 10 11 12 12 12 12 13 14 15 16 16 16 16 17 17 17 17 17 18 18 19 19 19 20 20 20 20 20 20 20 21 22 23 24 25 25 24 25 25 25
9 10 10 10 11 12 12 13 13 13 14 15 15 16 17 17 17 18 17 18 18 19 20 20 20 21 21 21 22 21 21 21 22 22 23 23 24 24 24 24 24 25 26
10 11 11 11 12 13 14 14 14 15 16 16 16 17 17 18 18 18 19 19 19 19 20 20 21 22 22 22 22 22 22 23 23 23 24 24 24 23 24 24 25 26 27
12 13 13 14 14 15 15 15 16 17 17 17 17 17 18 18 18 18 18 19 19 19 20 20 21 22 22 23 23 23 23 24 23 24 24 25 25 25 25 26 27 27 27
14 14 15 16 16 16 16 16 17 17 17 17 18 18 18 18 18 19 19 19 20 20 21 22 22 22 22 23 23 23 23 24 24 25 25 25 25 26 27 28 28 29 29
16 17 17 17 18 18 18 18 18 18 18 19 19 19 19 19 19 20 20 20 21 22 22 22 22 22 23 24 24 25 25 25 25 25 26 26 27 28 28 29 30 30 30
18 18 19 20 19 19 19 20 20 20 20 19 19 20 20 20 20 20 21 21 22 22 23 23 24 24 24 25 25 26 26 27 26 27 28 28 29 30 31 31 31 32 32
20 20 21 21 22 22 22 21 21 22 21 21 21 20 20 20 20 21 21 22 23 24 24 24 24 25 26 26 27 27 27 28 28 29 30 30 31 31 32 32 32 33 33
22 22 22 22 22 22 21 22 22 22 22 22 21 21 22 22 22 23 24 24 25 25 26 26 26 26 27 27 27 28 29 29 30 30 31 32 32 33 33 33 34 34 35
23 23 24 23 23 22 22 22 22 22 22 22 22 22 22 23 24 24 24 25 26 26 26 26 26 27 27 28 29 30 30 31 31 32 32 33 34 34 34 35 35 35 35
Wind_Direction
166 159 167 166 170 170 164 168 169 169 169 168 167 167 173 175 181 183 179 182 208 224 239 247 234 242 271 281 278 281 282 276 280 279 272 269 269 266 266 265 267 263 265
163 159 168 176 184 186 181 176 171 178 190 192 188 192 198 200 197 207 211 226 247 256 267 265 263 264 270 275 278 279 280 276 276 278 277 272 271 270 267 265 266 265 267
164 168 174 182 190 194 193 189 190 197 207 207 205 208 216 222 224 232 238 247 255 262 269 270 269 269 275 277 276 279 277 277 277 284 281 275 273 273 269 265 266 265 268
171 172 177 190 195 198 202 206 213 214 218 222 226 228 228 236 240 238 245 254 256 262 270 270 273 272 279 279 275 278 277 278 280 282 283 282 281 277 273 270 267 265 267
176 179 185 200 207 210 213 224 233 228 228 232 235 239 238 244 246 246 245 256 263 267 267 270 274 272 276 275 276 278 276 280 282 281 281 284 284 280 277 276 271 269 271
194 199 205 210 217 215 217 232 235 233 234 233 236 240 242 241 246 245 251 259 265 269 266 269 270 267 271 272 276 277 279 280 281 279 281 282 281 280 278 279 275 274 275
194 204 212 218 222 221 228 237 240 239 239 239 240 244 245 248 250 255 259 262 264 269 272 271 270 268 270 272 276 275 276 278 280 279 279 279 280 281 280 279 277 276 277
193 207 221 223 227 234 236 239 242 246 247 246 248 252 253 252 255 263 265 266 264 264 268 269 272 270 271 273 276 276 276 276 276 278 279 278 279 281 282 281 278 276 275
198 219 229 231 236 237 238 243 245 246 246 251 254 256 258 260 262 267 269 268 267 266 266 267 270 272 274 274 276 277 274 273 273 275 277 278 278 279 280 280 278 276 275
259 229 238 247 251 249 245 249 251 253 255 256 256 260 262 262 268 270 271 272 271 269 269 270 269 271 272 273 276 275 274 274 274 274 275 276 278 278 279 279 279 279 278
278 257 258 261 265 261 257 259 258 261 263 264 265 268 269 267 268 270 271 273 272 270 271 271 272 273 275 274 274 274 273 276 276 275 274 275 276 278 277 279 279 280 282
290 279 276 272 275 276 268 266 266 267 269 272 273 273 273 272 270 270 271 272 272 273 273 274 275 277 278 276 275 277 277 275 276 277 275 276 277 278 278 279 278 278 279
311 299 289 283 286 288 285 278 273 272 271 271 273 275 274 273 271 271 272 273 274 275 276 276 277 278 279 277 277 279 278 278 278 278 278 278 277 279 280 281 280 278 277
314 309 299 294 291 292 291 288 284 278 273 272 273 274 274 275 275 274 275 276 277 278 279 278 280 280 280 279 279 280 279 279 279 277 278 278 278 279 280 281 281 279 278
310 311 308 301 296 295 292 286 283 283 278 274 274 274 275 276 277 277 278 279 279 280 282 280 282 283 283 280 280 280 280 279 278 277 278 277 278 280 281 281 280 279 278
304 303 305 305 301 298 296 293 288 286 283 278 275 276 276 276 277 279 280 280 280 281 281 280 281 282 281 283 282 281 279 280 280 280 280 278 278 279 280 280 281 280 278
310 305 303 302 302 299 295 293 289 288 287 280 276 277 278 277 277 277 278 280 281 282 282 281 282 281 281 282 282 283 280 279 281 281 281 282 282 281 280 281 282 281 280
311 308 306 301 302 302 298 295 292 290 289 287 281 277 277 278 279 278 278 279 281 282 281 281 281 280 282 282 283 283 284 284 284 283 283 284 284 283 283 284 284 283 282
308 310 309 306 306 305 301 298 294 294 291 287 284 280 278 279 280 280 281 281 282 284 283 280 279 280 282 282 283 284 284 285 285 285 284 284 284 284 285 286 286 284 283
304 305 306 307 307 306 302 299 298 297 295 291 287 283 281 282 282 282 283 283 284 285 285 284 282 281 282 283 285 285 285 284 284 285 285 284 283 284 286 286 287 286 285
306 305 305 306 305 304 302 300 300 298 295 293 290 287 285 285 284 284 284 284 285 285 285 284 284 284 285 285 286 287 286 285 286 286 285 285 286 287 287 286 286 286 284
307 306 306 306 304 302 302 301 300 299 296 293 292 289 289 289 289 286 285 284 285 286 285 285 285 285 286 286 286 286 286 286 287 286 286 287 287 287 287 287 286 285 284
305 305 305 305 303 300 299 298 298 299 297 296 295 292 288 289 291 290 288 286 287 287 287 286 285 285 286 287 288 287 286 287 287 288 288 288 288 288 288 287 286 285 284
307 307 304 302 299 297 296 295 296 296 296 296 295 295 292 291 292 292 290 289 289 288 288 288 287 287 288 289 289 289 289 289 289 288 288 288 288 288 288 287 286 285 285
306 305 302 301 298 296 295 294 295 296 296 297 297 295 293 292 292 292 291 289 288 289 289 288 288 288 288 289 289 290 291 291 291 290 290 289 287 287 287 287 286 285 285
304 303 302 301 299 297 296 294 294 296 297 297 297 297 296 295 294 293 293 290 289 289 289 289 291 291 291 291 290 290 291 291 292 291 289 289 289 288 287 287 286 285 284
Height
5898 5899 5900 5901 5901 5901 5902 5902 5902 5903 5903 5903 5903 5903 5903 5903 5903 5903 5903 5903 5903 5903 5903 5902 5902 5902 5902 5901 5901 5900 5900 5900 5899 5899 5898 5898 5897 5897 5897 5897 5897 5896 5896
5899 5899 5900 5900 5901 5901 5902 5902 5902 5902 5903 5903 5903 5903 5903 5903 5903 5903 5903 5903 5903 5902 5902 5902 5902 5901 5901 5901 5900 5900 5899 5899 5898 5898 5897 5897 5896 5896 5896 5895 5895 5895 5895
5899 5899 5899 5900 5901 5901 5901 5902 5902 5902 5903 5903 5903 5903 5903 5903 5903 5903 5903 5903 5902 5902 5902 5901 5901 5901 5900 5900 5899 5899 5898 5898 5897 5897 5896 5895 5895 5895 5894 5894 5893 5893 5893
5898 5899 5899 5900 5900 5901 5901 5902 5902 5902 5902 5902 5902 5902 5902 5902 5902 5902 5902 5902 5901 5901 5901 5900 5900 5900 5899 5899 5898 5897 5897 5896 5896 5895 5894 5894 5893 5893 5892 5892 5891 5891 5891
5898 5898 5899 5899 5899 5900 5900 5901 5901 5901 5901 5902 5901 5901 5901 5901 5901 5901 5901 5900 5900 5900 5899 5899 5899 5898 5898 5897 5897 5896 5895 5894 5894 5893 5893 5892 5891 5891 5890 5890 5889 5889 5888
5897 5898 5898 5898 5899 5899 5899 5900 5900 5900 5900 5900 5901 5900 5900 5900 5900 5900 5899 5899 5899 5898 5898 5897 5897 5897 5896 5895 5895 5894 5893 5893 5892 5891 5890 5890 5889 5888 5888 5887 5887 5886 5885
5897 5897 5897 5898 5898 5898 5898 5898 5899 5899 5899 5899 5899 5899 5899 5899 5899 5898 5898 5897 5897 5897 5896 5895 5895 5895 5894 5894 5893 5892 5891 5890 5889 5888 5888 5887 5886 5885 5885 5884 5884 5883 5882
5896 5896 5897 5897 5897 5897 5897 5897 5897 5897 5897 5898 5898 5898 5898 5898 5897 5897 5896 5896 5895 5894 5894 5893 5893 5892 5892 5891 5890 5889 5888 5888 5887 5886 5885 5884 5883 5882 5882 5881 5880 5879 5879
5896 5896 5896 5896 5895 5895 5895 5895 5895 5895 5895 5896 5896 5896 5895 5895 5895 5895 5894 5893 5893 5892 5892 5891 5890 5889 5888 5888 5887 5886 5885 5885 5884 5883 5882 5881 5880 5879 5878 5878 5876 5875 5875
5895 5895 5894 5894 5894 5894 5894 5893 5893 5893 5893 5893 5893 5893 5893 5893 5893 5892 5891 5890 5890 5889 5889 5888 5887 5886 5886 5885 5884 5882 5881 5881 5880 5879 5878 5877 5876 5875 5874 5874 5873 5872 5871
5894 5893 5893 5893 5892 5892 5892 5892 5892 5891 5891 5891 5891 5890 5890 5890 5890 5889 5889 5888 5887 5886 5885 5885 5884 5883 5882 5881 5880 5879 5878 5877 5876 5875 5874 5873 5872 5871 5870 5869 5868 5867 5866
5893 5892 5892 5891 5891 5890 5890 5890 5889 5889 5888 5888 5888 5887 5887 5887 5886 5886 5886 5885 5884 5883 5882 5881 5880 5879 5878 5877 5876 5875 5874 5873 5872 5871 5870 5869 5868 5867 5865 5864 5863 5862 5861
5892 5891 5890 5889 5889 5888 5888 5887 5887 5886 5886 5885 5885 5884 5884 5884 5883 5883 5882 5881 5880 5879 5878 5877 5876 5875 5873 5872 5871 5870 5869 5868 5867 5866 5865 5864 5862 5861 5860 5859 5857 5856 5855
5891 5889 5889 5888 5887 5886 5885 5885 5884 5883 5883 5882 5882 5881 5881 5880 5879 5879 5878 5877 5876 5875 5874 5872 5871 5870 5868 5868 5867 5865 5864 5863 5862 5861 5860 5858 5857 5856 5854 5853 5852 5850 5849
5889 5888 5887 5886 5885 5884 5883 5882 5881 5880 5880 5879 5878 5877 5877 5876 5875 5874 5874 5873 5872 5871 5869 5868 5866 5865 5863 5862 5862 5860 5859 5858 5856 5855 5854 5853 5851 5850 5848 5847 5846 5844 5843
5887 5886 5885 5884 5883 5882 5881 5880 5878 5877 5876 5875 5874 5874 5873 5872 5871 5870 5869 5868 5867 5866 5865 5863 5862 5860 5859 5857 5856 5855 5854 5852 5851 5849 5848 5846 5845 5844 5842 5841 5839 5838 5837
5885 5883 5882 5881 5880 5878 5877 5876 5875 5874 5873 5871 5870 5869 5868 5867 5866 5865 5864 5863 5862 5860 5859 5858 5856 5855 5854 5852 5851 5850 5848 5846 5845 5844 5842 5840 5839 5837 5836 5834 5833 5831 5830
5882 5881 5879 5878 5877 5875 5873 5872 5871 5869 5868 5867 5866 5865 5864 5863 5861 5860 5859 5858 5856 5855 5854 5852 5851 5849 5848 5847 5845 5844 5842 5840 5839 5837 5836 5834 5832 5831 5829 5827 5826 5824 5823
5880 5878 5876 5875 5873 5871 5870 5868 5866 5865 5864 5862 5861 5860 5858 5857 5856 5855 5853 5852 5851 5850 5848 5847 5845 5844 5842 5841 5839 5838 5836 5834 5833 5831 5829 5828 5826 5824 5822 5820 5818 5817 5815
5877 5875 5873 5871 5869 5867 5866 5864 5862 5860 5859 5857 5856 5855 5853 5852 5851 5849 5848 5846 5845 5844 5842 5841 5839 5838 5836 5834 5833 5831 5830 5828 5826 5824 5822 5821 5819 5817 5815 5813 5812 5810 5808
5873 5871 5869 5867 5865 5863 5861 5859 5858 5856 5854 5852 5851 5849 5848 5846 5845 5843 5842 5841 5839 5838 5836 5835 5833 5831 5830 5828 5826 5825 5823 5821 5819 5817 5815 5814 5812 5810 5808 5806 5804 5802 5799
5869 5867 5865 5863 5861 5859 5857 5855 5853 5851 5849 5847 5845 5844 5842 5840 5839 5837 5836 5835 5833 5832 5830 5829 5827 5825 5823 5822 5820 5818 5816 5814 5812 5811 5808 5806 5804 5802 5800 5798 5795 5793 5791
5865 5863 5861 5858 5856 5854 5852 5850 5848 5846 5844 5842 5840 5838 5836 5835 5833 5831 5830 5828 5827 5825 5824 5823 5820 5818 5817 5814 5812 5810 5808 5806 5805 5802 5800 5798 5796 5794 5791 5789 5786 5784 5782
5860 5858 5855 5853 5851 5849 5846 5844 5843 5841 5839 5837 5835 5833 5831 5829 5827 5825 5823 5821 5820 5818 5817 5815 5813 5811 5809 5807 5805 5803 5801 5798 5796 5794 5791 5789 5787 5784 5782 5779 5777 5774 5772
5855 5852 5850 5847 5845 5843 5841 5839 5837 5834 5833 5831 5829 5827 5825 5823 5820 5818 5817 5815 5813 5811 5809 5807 5805 5803 5801 5799 5797 5795 5792 5790 5788 5785 5782 5780 5778 5775 5773 5770 5767 5764 5762
5849 5846 5844 5841 5839 5837 5835 5833 5831 5829 5827 5825 5823 5821 5819 5816 5814 5811 5810 5807 5805 5803 5801 5799 5797 5795 5793 5791 5788 5786 5784 5781 5779 5776 5773 5770 5768 5765 5763 5760 5757 5754 5751